UAL312 KEWR-KROC

Flight info

Callsign UAL312
Flight time 0h 57m
Altitude 28000
Route NEION Q232 CORDS GIBBE
Aircraft A320/M-VGDW/C

Departure

Time 2026-04-16 21:45
Airport Newark Liberty International Airport (KEWR)

Arrival

Time 2026-04-16 22:42
Airport Frederick Douglass Greater Rochester International Airport (KROC)
Time Latitude Longitude Altitude Speed Heading
2026-04-16 21:16 40.68303 -74.18411 22 ft 0 kts
2026-04-16 21:18 40.68302 -74.18411 22 ft 0 kts
2026-04-16 21:32 40.68299 -74.18411 22 ft 3 kts
2026-04-16 21:33 40.68272 -74.18414 22 ft 4 kts
2026-04-16 21:33 40.68249 -74.18419 22 ft 4 kts 54°
2026-04-16 21:33 40.68246 -74.18440 24 ft 4 kts 95°
2026-04-16 21:33 40.68248 -74.18467 22 ft 0 kts 95°
2026-04-16 21:36 40.68247 -74.18455 22 ft 2 kts 95°
2026-04-16 21:36 40.68245 -74.18423 22 ft 5 kts 95°
2026-04-16 21:36 40.68242 -74.18372 22 ft 7 kts 95°
2026-04-16 21:36 40.68238 -74.18318 22 ft 6 kts 95°
2026-04-16 21:37 40.68234 -74.18253 22 ft 8 kts 95°
2026-04-16 21:37 40.68235 -74.18169 22 ft 10 kts 79°
2026-04-16 21:37 40.68237 -74.18091 22 ft 9 kts 94°
2026-04-16 21:37 40.68231 -74.17999 22 ft 11 kts 99°
2026-04-16 21:38 40.68198 -74.17895 24 ft 13 kts 116°
2026-04-16 21:38 40.68163 -74.17800 23 ft 9 kts 116°
2026-04-16 21:38 40.68148 -74.17741 22 ft 6 kts 84°
2026-04-16 21:38 40.68183 -74.17696 24 ft 8 kts 28°
2026-04-16 21:39 40.68241 -74.17659 23 ft 10 kts 26°
2026-04-16 21:39 40.68311 -74.17614 22 ft 12 kts 25°
2026-04-16 21:39 40.68391 -74.17564 23 ft 14 kts 26°
2026-04-16 21:39 40.68481 -74.17506 24 ft 15 kts 26°
2026-04-16 21:40 40.68583 -74.17441 25 ft 17 kts 25°
2026-04-16 21:40 40.68696 -74.17369 25 ft 19 kts 25°
2026-04-16 21:40 40.68778 -74.17317 23 ft 21 kts 26°
2026-04-16 21:40 40.68908 -74.17234 25 ft 21 kts 26°
2026-04-16 21:41 40.69036 -74.17153 22 ft 20 kts 25°
2026-04-16 21:41 40.69152 -74.17079 22 ft 19 kts 26°
2026-04-16 21:41 40.69276 -74.17001 23 ft 21 kts 26°
2026-04-16 21:41 40.69360 -74.16946 22 ft 12 kts 26°
2026-04-16 21:42 40.69441 -74.16895 22 ft 14 kts 26°
2026-04-16 21:42 40.69535 -74.16835 22 ft 16 kts 26°
2026-04-16 21:42 40.69643 -74.16767 22 ft 18 kts 26°
2026-04-16 21:42 40.69765 -74.16689 23 ft 21 kts 26°
2026-04-16 21:43 40.69888 -74.16612 23 ft 18 kts 26°
2026-04-16 21:43 40.70001 -74.16539 21 ft 12 kts 26°
2026-04-16 21:43 40.70054 -74.16506 21 ft 5 kts 27°
2026-04-16 21:43 40.70063 -74.16455 20 ft 7 kts 92°
2026-04-16 21:44 40.70056 -74.16375 20 ft 7 kts 102°
2026-04-16 21:44 40.70026 -74.16363 19 ft 6 kts 194°
2026-04-16 21:44 40.69961 -74.16407 19 ft 26 kts 206°
2026-04-16 21:44 40.69580 -74.16647 23 ft 92 kts 206°
2026-04-16 21:45 40.68840 -74.17116 23 ft 142 kts 205°
2026-04-16 21:45 40.67841 -74.17749 71 ft 176 kts 206°
2026-04-16 21:45 40.66725 -74.18177 756 ft 165 kts 171°
2026-04-16 21:45 40.65619 -74.17812 1401 ft 165 kts 168°
2026-04-16 21:46 40.64465 -74.18092 1769 ft 186 kts 213°
2026-04-16 21:46 40.63450 -74.19304 1968 ft 208 kts 221°
2026-04-16 21:46 40.62242 -74.20505 2208 ft 228 kts 211°
2026-04-16 21:46 40.60770 -74.21558 2557 ft 251 kts 207°
2026-04-16 21:47 40.59178 -74.22588 3301 ft 257 kts 207°
2026-04-16 21:47 40.57600 -74.23709 4173 ft 259 kts 218°
2026-04-16 21:47 40.56421 -74.25482 5010 ft 261 kts 242°
2026-04-16 21:47 40.55946 -74.27789 5842 ft 266 kts 267°
2026-04-16 21:48 40.56311 -74.30184 6653 ft 275 kts 292°
2026-04-16 21:48 40.57515 -74.32167 7451 ft 286 kts 320°
2026-04-16 21:48 40.59337 -74.33279 8212 ft 296 kts 339°
2026-04-16 21:48 40.61333 -74.34059 8968 ft 299 kts 340°
2026-04-16 21:49 40.63341 -74.34823 9688 ft 302 kts 339°
2026-04-16 21:49 40.65370 -74.35592 10352 ft 308 kts 339°
2026-04-16 21:49 40.67508 -74.36413 10521 ft 331 kts 339°
2026-04-16 21:49 40.69779 -74.37293 10818 ft 347 kts 339°
2026-04-16 21:50 40.72112 -74.38198 11416 ft 351 kts 339°
2026-04-16 21:50 40.74465 -74.39114 12084 ft 354 kts 338°
2026-04-16 21:50 40.76833 -74.40034 12800 ft 356 kts 338°
2026-04-16 21:50 40.79215 -74.40957 13478 ft 358 kts 338°
2026-04-16 21:51 40.81618 -74.41891 14118 ft 361 kts 338°
2026-04-16 21:51 40.84030 -74.42827 14745 ft 363 kts 338°
2026-04-16 21:51 40.86461 -74.43771 15354 ft 366 kts 337°
2026-04-16 21:51 40.88913 -74.44729 15939 ft 369 kts 337°
2026-04-16 21:52 40.91378 -74.45700 16527 ft 371 kts 337°
2026-04-16 21:52 40.93861 -74.46682 17114 ft 374 kts 337°
2026-04-16 21:52 40.96366 -74.47672 17652 ft 377 kts 337°
2026-04-16 21:52 40.98889 -74.48664 18261 ft 380 kts 336°
2026-04-16 21:53 41.01433 -74.49662 18833 ft 383 kts 337°
2026-04-16 21:53 41.03999 -74.50667 19386 ft 387 kts 336°
2026-04-16 21:53 41.06594 -74.51686 19938 ft 390 kts 336°
2026-04-16 21:53 41.09214 -74.52715 20468 ft 394 kts 336°
2026-04-16 21:54 41.11853 -74.53755 20984 ft 398 kts 336°
2026-04-16 21:54 41.14517 -74.54806 21488 ft 401 kts 336°
2026-04-16 21:54 41.17204 -74.55866 21983 ft 405 kts 336°
2026-04-16 21:54 41.19889 -74.57010 22443 ft 404 kts 330°
2026-04-16 21:55 41.22365 -74.58712 22883 ft 397 kts 319°
2026-04-16 21:55 41.24498 -74.60978 23318 ft 391 kts 309°
2026-04-16 21:55 41.26276 -74.63683 23736 ft 389 kts 303°
2026-04-16 21:55 41.27963 -74.66452 24120 ft 392 kts 303°
2026-04-16 21:56 41.29710 -74.69310 24654 ft 390 kts 303°
2026-04-16 21:56 41.31416 -74.72082 25406 ft 383 kts 303°
2026-04-16 21:56 41.33080 -74.74767 26106 ft 380 kts 303°
2026-04-16 21:56 41.34775 -74.77518 26614 ft 379 kts 303°
2026-04-16 21:57 41.36444 -74.80241 27022 ft 381 kts 302°
2026-04-16 21:57 41.38126 -74.82999 27276 ft 387 kts 303°
2026-04-16 21:57 41.39833 -74.85803 27529 ft 392 kts 303°
2026-04-16 21:57 41.41562 -74.88644 27767 ft 398 kts 303°
2026-04-16 21:58 41.43322 -74.91539 27858 ft 407 kts 303°
2026-04-16 21:58 41.45129 -74.94509 27871 ft 417 kts 303°
2026-04-16 21:58 41.46957 -74.97512 27870 ft 427 kts 303°
2026-04-16 21:58 41.48847 -75.00619 27877 ft 435 kts 303°
2026-04-16 21:59 41.50770 -75.03785 27878 ft 443 kts 303°
2026-04-16 21:59 41.52725 -75.07004 27879 ft 449 kts 303°
2026-04-16 21:59 41.54693 -75.10244 27878 ft 450 kts 303°
2026-04-16 21:59 41.56667 -75.13495 27879 ft 451 kts 303°
2026-04-16 22:00 41.58584 -75.16795 27879 ft 449 kts 301°
2026-04-16 22:00 41.60422 -75.20165 27878 ft 448 kts 300°
2026-04-16 22:00 41.62208 -75.23583 27878 ft 448 kts 299°
2026-04-16 22:00 41.63966 -75.27013 27869 ft 447 kts 298°
2026-04-16 22:01 41.65721 -75.30442 27868 ft 447 kts 298°
2026-04-16 22:01 41.67491 -75.33863 27884 ft 447 kts 299°
2026-04-16 22:01 41.69277 -75.37274 27860 ft 448 kts 299°
2026-04-16 22:01 41.71067 -75.40672 27848 ft 447 kts 299°
2026-04-16 22:02 41.72864 -75.44067 27852 ft 447 kts 299°
2026-04-16 22:02 41.74661 -75.47464 27842 ft 447 kts 299°
2026-04-16 22:02 41.76458 -75.50871 27840 ft 447 kts 299°
2026-04-16 22:02 41.78248 -75.54278 27839 ft 447 kts 299°
2026-04-16 22:03 41.80031 -75.57682 27837 ft 447 kts 299°
2026-04-16 22:03 41.81813 -75.61093 27851 ft 446 kts 299°
2026-04-16 22:03 41.83594 -75.64501 27858 ft 446 kts 299°
2026-04-16 22:03 41.85374 -75.67911 27852 ft 446 kts 299°
2026-04-16 22:04 41.87151 -75.71322 27847 ft 446 kts 299°
2026-04-16 22:04 41.88929 -75.74737 27838 ft 446 kts 298°
2026-04-16 22:04 41.90705 -75.78147 27832 ft 446 kts 298°
2026-04-16 22:04 41.92479 -75.81556 27828 ft 446 kts 298°
2026-04-16 22:05 41.94252 -75.84974 27825 ft 446 kts 298°
2026-04-16 22:05 41.96023 -75.88393 27842 ft 446 kts 298°
2026-04-16 22:05 41.97792 -75.91811 27849 ft 446 kts 298°
2026-04-16 22:05 41.99560 -75.95227 27842 ft 446 kts 298°
2026-04-16 22:06 42.01329 -75.98653 27835 ft 446 kts 298°
2026-04-16 22:06 42.04866 -76.05499 27827 ft 445 kts 298°
2026-04-16 22:06 42.06635 -76.08920 27823 ft 445 kts 298°
2026-04-16 22:07 42.08401 -76.12344 27821 ft 445 kts 298°
2026-04-16 22:07 42.10161 -76.15770 27820 ft 445 kts 298°
2026-04-16 22:07 42.11922 -76.19201 27816 ft 445 kts 298°
2026-04-16 22:07 42.13679 -76.22626 27815 ft 445 kts 298°
2026-04-16 22:08 42.15440 -76.26064 27815 ft 445 kts 298°
2026-04-16 22:08 42.17176 -76.29448 27629 ft 432 kts 298°
2026-04-16 22:08 42.18865 -76.32738 27383 ft 423 kts 298°
2026-04-16 22:08 42.20528 -76.35987 27129 ft 420 kts 298°
2026-04-16 22:09 42.22180 -76.39232 26879 ft 418 kts 298°
2026-04-16 22:09 42.23823 -76.42463 26628 ft 417 kts 297°
2026-04-16 22:09 42.25457 -76.45688 26373 ft 416 kts 297°
2026-04-16 22:09 42.27085 -76.48902 26125 ft 415 kts 297°
2026-04-16 22:10 42.28711 -76.52110 25874 ft 413 kts 297°
2026-04-16 22:10 42.30334 -76.55310 25624 ft 412 kts 297°
2026-04-16 22:10 42.31949 -76.58498 25372 ft 410 kts 297°
2026-04-16 22:10 42.33557 -76.61668 25120 ft 409 kts 297°
2026-04-16 22:11 42.35149 -76.64816 24626 ft 403 kts 297°
2026-04-16 22:11 42.36723 -76.67928 24043 ft 398 kts 297°
2026-04-16 22:11 42.38257 -76.70967 23476 ft 395 kts 297°
2026-04-16 22:11 42.39797 -76.74021 22903 ft 391 kts 297°
2026-04-16 22:12 42.41317 -76.77043 22356 ft 386 kts 297°
2026-04-16 22:12 42.42823 -76.80041 21819 ft 383 kts 297°
2026-04-16 22:12 42.44320 -76.83015 21295 ft 381 kts 297°
2026-04-16 22:12 42.45807 -76.85962 20776 ft 378 kts 297°
2026-04-16 22:13 42.47280 -76.88898 20285 ft 375 kts 297°
2026-04-16 22:13 42.48736 -76.91807 19816 ft 371 kts 297°
2026-04-16 22:13 42.50172 -76.94683 19327 ft 367 kts 297°
2026-04-16 22:13 42.51599 -76.97538 18869 ft 364 kts 297°
2026-04-16 22:14 42.53002 -77.00361 18493 ft 357 kts 296°
2026-04-16 22:14 42.54305 -77.03192 18006 ft 351 kts 294°
2026-04-16 22:14 42.55522 -77.06040 17498 ft 348 kts 293°
2026-04-16 22:14 42.56697 -77.08899 16960 ft 346 kts 292°
2026-04-16 22:15 42.57853 -77.11745 16416 ft 343 kts 292°
2026-04-16 22:15 42.59019 -77.14612 15527 ft 351 kts 293°
2026-04-16 22:15 42.60205 -77.17492 14953 ft 348 kts 293°
2026-04-16 22:15 42.61392 -77.20338 14436 ft 344 kts 294°
2026-04-16 22:16 42.62568 -77.23135 13918 ft 339 kts 294°
2026-04-16 22:16 42.63732 -77.25900 13407 ft 335 kts 294°
2026-04-16 22:16 42.64884 -77.28636 12895 ft 332 kts 294°
2026-04-16 22:16 42.66026 -77.31343 12392 ft 328 kts 294°
2026-04-16 22:17 42.67154 -77.34025 11888 ft 325 kts 294°
2026-04-16 22:17 42.68268 -77.36686 11386 ft 322 kts 294°
2026-04-16 22:17 42.69366 -77.39318 10892 ft 319 kts 294°
2026-04-16 22:17 42.70446 -77.41910 10643 ft 309 kts 294°
2026-04-16 22:18 42.71488 -77.44408 10512 ft 298 kts 294°
2026-04-16 22:18 42.72492 -77.46814 10386 ft 288 kts 294°
2026-04-16 22:18 42.73465 -77.49143 10251 ft 279 kts 293°
2026-04-16 22:18 42.74408 -77.51409 10119 ft 272 kts 293°
2026-04-16 22:19 42.75342 -77.53664 10069 ft 275 kts 293°
2026-04-16 22:19 42.76284 -77.55944 9980 ft 276 kts 293°
2026-04-16 22:19 42.77235 -77.58248 9470 ft 284 kts 294°
2026-04-16 22:19 42.78187 -77.60549 9204 ft 280 kts 294°
2026-04-16 22:20 42.79141 -77.62847 8850 ft 278 kts 294°
2026-04-16 22:20 42.80085 -77.65129 8366 ft 280 kts 294°
2026-04-16 22:20 42.81050 -77.67467 7627 ft 282 kts 294°
2026-04-16 22:20 42.81991 -77.69744 7311 ft 267 kts 294°
2026-04-16 22:21 42.82874 -77.71873 7174 ft 248 kts 294°
2026-04-16 22:21 42.83883 -77.73689 7040 ft 239 kts 310°
2026-04-16 22:21 42.85195 -77.75142 6546 ft 245 kts 315°
2026-04-16 22:21 42.86100 -77.76104 6235 ft 246 kts 315°
2026-04-16 22:22 42.87454 -77.77542 5789 ft 249 kts 316°
2026-04-16 22:22 42.88801 -77.78963 5496 ft 237 kts 316°
2026-04-16 22:22 42.90077 -77.80301 5167 ft 228 kts 315°
2026-04-16 22:22 42.91316 -77.81619 4761 ft 224 kts 315°
2026-04-16 22:23 42.92513 -77.82882 4602 ft 210 kts 316°
2026-04-16 22:23 42.93745 -77.83898 4274 ft 212 kts 341°
2026-04-16 22:23 42.95203 -77.83666 3852 ft 220 kts 26°
2026-04-16 22:23 42.96303 -77.82210 3388 ft 222 kts 51°
2026-04-16 22:24 42.97367 -77.80696 2933 ft 219 kts 38°
2026-04-16 22:24 42.98562 -77.79434 2520 ft 214 kts 33°
2026-04-16 22:24 42.99759 -77.78280 2192 ft 207 kts 30°
2026-04-16 22:24 43.00912 -77.77130 2008 ft 200 kts 33°
2026-04-16 22:25 43.02008 -77.76096 2010 ft 185 kts 27°
2026-04-16 22:25 43.03062 -77.75183 2018 ft 177 kts 27°
2026-04-16 22:25 43.04090 -77.74315 1963 ft 169 kts 26°
2026-04-16 22:25 43.05050 -77.73506 1804 ft 159 kts 27°
2026-04-16 22:26 43.05945 -77.72749 1644 ft 145 kts 24°
2026-04-16 22:26 43.06797 -77.72038 1459 ft 142 kts 25°
2026-04-16 22:26 43.07632 -77.71336 1273 ft 138 kts 25°
2026-04-16 22:26 43.08464 -77.70641 1086 ft 141 kts 26°
2026-04-16 22:27 43.09297 -77.69941 896 ft 140 kts 28°
2026-04-16 22:27 43.10114 -77.69255 722 ft 138 kts 26°
2026-04-16 22:27 43.10933 -77.68558 565 ft 137 kts 27°
2026-04-16 22:27 43.11654 -77.67922 588 ft 120 kts 31°
2026-04-16 22:28 43.12414 -77.67233 1008 ft 135 kts 26°
2026-04-16 22:28 43.13248 -77.66477 1551 ft 156 kts 30°
2026-04-16 22:28 43.13908 -77.65179 2185 ft 182 kts 75°
2026-04-16 22:28 43.13734 -77.63333 2115 ft 217 kts 116°
2026-04-16 22:29 43.12810 -77.61648 1972 ft 232 kts 130°
2026-04-16 22:29 43.12065 -77.59701 2084 ft 230 kts 95°
2026-04-16 22:29 43.12042 -77.57517 2338 ft 231 kts 81°
2026-04-16 22:29 43.12260 -77.55325 2589 ft 234 kts 79°
2026-04-16 22:30 43.12526 -77.53108 2839 ft 238 kts 81°
2026-04-16 22:30 43.12773 -77.50869 2977 ft 242 kts 83°
2026-04-16 22:30 43.12992 -77.48591 3010 ft 241 kts 84°
2026-04-16 22:30 43.13190 -77.46329 3013 ft 240 kts 84°
2026-04-16 22:31 43.13327 -77.44059 3009 ft 238 kts 96°
2026-04-16 22:31 43.12912 -77.41916 3021 ft 231 kts 123°
2026-04-16 22:31 43.11888 -77.40286 3021 ft 224 kts 149°
2026-04-16 22:31 43.10493 -77.39446 3026 ft 217 kts 174°
2026-04-16 22:32 43.09016 -77.39477 3025 ft 211 kts 198°
2026-04-16 22:32 43.07670 -77.40341 3026 ft 222 kts 220°
2026-04-16 22:32 43.06538 -77.41823 3025 ft 228 kts 227°
2026-04-16 22:32 43.05418 -77.43363 3021 ft 229 kts 226°
2026-04-16 22:33 43.04289 -77.44907 3021 ft 229 kts 226°
2026-04-16 22:33 43.03159 -77.46449 3024 ft 230 kts 226°
2026-04-16 22:33 43.02029 -77.47994 3023 ft 230 kts 226°
2026-04-16 22:33 43.00897 -77.49544 3024 ft 230 kts 226°
2026-04-16 22:34 42.99766 -77.51090 3025 ft 230 kts 226°
2026-04-16 22:34 42.98630 -77.52642 3026 ft 231 kts 226°
2026-04-16 22:34 42.97495 -77.54190 3027 ft 231 kts 226°
2026-04-16 22:34 42.96359 -77.55739 3028 ft 231 kts 226°
2026-04-16 22:35 42.95220 -77.57285 3023 ft 230 kts 225°
2026-04-16 22:35 42.94092 -77.58815 3012 ft 224 kts 226°
2026-04-16 22:35 42.93025 -77.60259 3012 ft 210 kts 226°
2026-04-16 22:35 42.91993 -77.61659 3013 ft 209 kts 225°
2026-04-16 22:36 42.90962 -77.63060 3014 ft 208 kts 226°
2026-04-16 22:36 42.90079 -77.64598 2890 ft 206 kts 249°
2026-04-16 22:36 42.89978 -77.66468 2727 ft 197 kts 285°
2026-04-16 22:36 42.90584 -77.68082 2645 ft 186 kts 301°
2026-04-16 22:37 42.91303 -77.69504 2428 ft 180 kts 303°
2026-04-16 22:37 42.92016 -77.70902 2145 ft 178 kts 303°
2026-04-16 22:37 42.92706 -77.72298 2007 ft 178 kts 304°
2026-04-16 22:37 42.93372 -77.73711 1983 ft 176 kts 303°
2026-04-16 22:38 42.94022 -77.75132 1975 ft 175 kts 303°
2026-04-16 22:38 42.94726 -77.76457 1965 ft 172 kts 322°
2026-04-16 22:38 42.95853 -77.76941 1978 ft 177 kts 359°
2026-04-16 22:38 42.97091 -77.76715 1985 ft 181 kts
2026-04-16 22:39 42.98315 -77.76358 1981 ft 178 kts
2026-04-16 22:39 42.99527 -77.75996 1991 ft 181 kts
2026-04-16 22:39 43.00733 -77.75613 1978 ft 174 kts
2026-04-16 22:39 43.01889 -77.75238 1977 ft 170 kts
2026-04-16 22:40 43.03037 -77.74862 1972 ft 169 kts
2026-04-16 22:40 43.04146 -77.74319 1949 ft 175 kts 26°
2026-04-16 22:40 43.05263 -77.73343 1779 ft 198 kts 27°
2026-04-16 22:40 43.06384 -77.72385 1547 ft 181 kts 26°
2026-04-16 22:41 43.07394 -77.71534 1344 ft 158 kts 26°
2026-04-16 22:41 43.08292 -77.70780 1124 ft 147 kts 25°
2026-04-16 22:41 43.09146 -77.70064 939 ft 141 kts 27°
2026-04-16 22:41 43.09964 -77.69380 758 ft 138 kts 26°
2026-04-16 22:42 43.10785 -77.68691 581 ft 138 kts 26°
2026-04-16 22:42 43.11492 -77.68107 549 ft 85 kts 33°
2026-04-16 22:42 43.11813 -77.67825 550 ft 31 kts 31°
2026-04-16 22:42 43.11966 -77.67694 550 ft 20 kts 32°
2026-04-16 22:43 43.12027 -77.67620 548 ft 11 kts 70°
2026-04-16 22:43 43.12015 -77.67528 549 ft 8 kts 107°
2026-04-16 22:43 43.12031 -77.67466 550 ft 7 kts 41°
2026-04-16 22:43 43.12069 -77.67433 550 ft 8 kts 31°
2026-04-16 22:44 43.12132 -77.67381 549 ft 13 kts 32°
2026-04-16 22:44 43.12213 -77.67313 549 ft 14 kts 31°
2026-04-16 22:44 43.12298 -77.67241 553 ft 14 kts 31°
2026-04-16 22:44 43.12377 -77.67175 549 ft 13 kts 31°
2026-04-16 22:45 43.12449 -77.67114 550 ft 12 kts 31°
2026-04-16 22:45 43.12492 -77.67077 550 ft 4 kts 39°
2026-04-16 22:45 43.12505 -77.67049 550 ft 5 kts 66°
2026-04-16 22:45 43.12509 -77.66995 550 ft 7 kts 88°
2026-04-16 22:46 43.12511 -77.66922 550 ft 8 kts 88°
2026-04-16 22:46 43.12533 -77.66863 557 ft 7 kts 41°
2026-04-16 22:46 43.12575 -77.66845 550 ft 6 kts 360°
2026-04-16 22:46 43.12616 -77.66852 550 ft 6 kts 353°
2026-04-16 22:47 43.12655 -77.66844 550 ft 6 kts 22°
2026-04-16 22:47 43.12685 -77.66817 554 ft 4 kts 54°
2026-04-16 22:47 43.12685 -77.66796 550 ft 3 kts 97°
2026-04-16 22:47 43.12674 -77.66762 550 ft 4 kts 117°
2026-04-16 22:48 43.12666 -77.66741 550 ft 2 kts 120°
2026-04-16 22:48 43.12663 -77.66736 550 ft 0 kts 120°